Weather past 2 weeks in Willemstad, Curaçao

Now
81 °F

Passing clouds.


Feels Like: 85 °F
Forecast: 80 / 87 °F
Wind: 18 mph from Southeast

Location: Hato Airport - Curacao

Current Time: May 5, 2015 at 7:16:49 AM

Latest Report: May 5, 2015 at 6:00 AM


Visibility: N/A

Pressure: 29.95 "Hg

Humidity: 74%

Dew point: 72 °F

Location of WillemstadLocation

Historic Weather in Willemstad — Graph

°F

Willemstad temperature yesterday

Maximum temperature yesterday: 86 °F (at 1:00 PM)
Minimum temperature yesterday: 81 °F (at 12:00 AM)
Average temperature yesterday: 82 °F

Past Weeks' High & Low Weather Summary

 TemperatureHumidityPressure
High91 °F (Apr 29, 3:00 PM)89% (Apr 25, 2:00 AM)30.01 "Hg (Apr 25, 2:00 AM)
Low77 °F (May 2, 3:00 AM)46% (Apr 22, 3:00 PM)29.74 "Hg (Apr 27, 6:00 PM)
Average82 °F76%29.88 "Hg
* Reported Apr 20 6:00 AM — May 5 6:00 AM, Willemstad, Weather by CustomWeather, © 2015

Note: Actual official high and low records may vary slightly from our data, if they occured in-between our weather recording intervals... More about our weather records

Advertising

Willemstad weather history for previous 24 hours

 ConditionsComfort  
Time TempWeatherWind HumidityBarometerVisibility
6:00 AM
Tue, May 5
81 °FPassing clouds.18 mph74%29.95 "HgN/A
5:00 AM81 °FPassing clouds.20 mph74%29.95 "HgN/A
4:00 AM81 °FWarm.16 mph74%29.95 "HgN/A
2:00 AM81 °FPassing clouds.15 mph74%29.95 "HgN/A
1:00 AM81 °FPassing clouds.13 mph74%29.98 "HgN/A
12:00 AM81 °FPassing clouds.14 mph74%29.98 "HgN/A
11:00 PM
Mon, May 4
81 °FPassing clouds.15 mph79%29.98 "HgN/A
10:00 PM81 °FPassing clouds.17 mph79%29.95 "HgN/A
9:00 PM81 °FPassing clouds.20 mph79%29.95 "HgN/A
8:00 PM81 °FClear.20 mph79%29.89 "Hg10 mi
7:00 PM81 °FPassing clouds.21 mph74%29.89 "HgN/A
6:00 PM82 °FPassing clouds.16 mph74%29.86 "HgN/A
5:00 PM84 °FSunny.16 mph66%29.89 "Hg10 mi
4:00 PM86 °FPassing clouds.20 mph62%29.89 "HgN/A
3:00 PM86 °FPassing clouds.21 mph62%29.92 "HgN/A
2:00 PM86 °FPassing clouds.18 mph66%29.92 "HgN/A
1:00 PM86 °FPassing clouds.18 mph66%29.95 "Hg5 mi
12:00 PM84 °FScattered clouds.21 mph70%29.98 "HgN/A
11:00 AM84 °FPartly sunny.20 mph70%29.98 "HgN/A
10:00 AM84 °FPartly sunny.20 mph70%29.98 "HgN/A
9:00 AM82 °FBroken clouds.18 mph74%29.98 "HgN/A
8:00 AM81 °FScattered clouds.16 mph79%29.95 "HgN/A
7:00 AM81 °FPartly sunny.14 mph79%29.95 "HgN/A
Weather by CustomWeather, © 2015

See weather overviewHow to use our weather pages